owner,sensor,date,latitude,longitude,air_pressure(mBar),qcFlag 
COMPS,ioos:station:USF.COMPS:BGC:1,2015-03-01T04:00:00Z,26.4040,-81.8810,1026.6,1111122 
COMPS,ioos:station:USF.COMPS:BGC:1,2015-03-01T04:06:00Z,26.4040,-81.8810,1026.5,1111122 
COMPS,ioos:station:USF.COMPS:BGC:1,2015-03-01T04:12:00Z,26.4040,-81.8810,1026.5,1111122 
COMPS,ioos:station:USF.COMPS:BGC:1,2015-03-01T04:18:00Z,26.4040,-81.8810,1026.5,1111122 
COMPS,ioos:station:USF.COMPS:BGC:1,2015-03-01T04:24:00Z,26.4040,-81.8810,1026.4,1111122 
COMPS,ioos:station:USF.COMPS:BGC:1,2015-03-01T04:30:00Z,26.4040,-81.8810,1026.3,1111122 
COMPS,ioos:station:USF.COMPS:BGC:1,2015-03-01T04:36:00Z,26.4040,-81.8810,1026.2,1111122 
COMPS,ioos:station:USF.COMPS:BGC:1,2015-03-01T04:42:00Z,26.4040,-81.8810,1026.1,1111122 
COMPS,ioos:station:USF.COMPS:BGC:1,2015-03-01T04:48:00Z,26.4040,-81.8810,1026.1,1111122 
COMPS,ioos:station:USF.COMPS:BGC:1,2015-03-01T04:54:00Z,26.4040,-81.8810,1026.1,1111122 
COMPS,ioos:station:USF.COMPS:BGC:1,2015-03-01T09:00:00Z,26.4040,-81.8810,1024.8,1111122 
COMPS,ioos:station:USF.COMPS:BGC:1,2015-03-01T09:06:00Z,26.4040,-81.8810,1024.8,1111122 
COMPS,ioos:station:USF.COMPS:BGC:1,2015-03-01T09:12:00Z,26.4040,-81.8810,1024.7,1111122 
COMPS,ioos:station:USF.COMPS:BGC:1,2015-03-01T09:18:00Z,26.4040,-81.8810,1024.7,1111122 
COMPS,ioos:station:USF.COMPS:BGC:1,2015-03-01T09:24:00Z,26.4040,-81.8810,1024.7,1111122 
COMPS,ioos:station:USF.COMPS:BGC:1,2015-03-01T09:30:00Z,26.4040,-81.8810,1024.7,1111122 
COMPS,ioos:station:USF.COMPS:BGC:1,2015-03-01T09:36:00Z,26.4040,-81.8810,1024.9,1111122 
COMPS,ioos:station:USF.COMPS:BGC:1,2015-03-01T09:42:00Z,26.4040,-81.8810,1025.0,1111122 
COMPS,ioos:station:USF.COMPS:BGC:1,2015-03-01T09:48:00Z,26.4040,-81.8810,1025.0,1111122 
COMPS,ioos:station:USF.COMPS:BGC:1,2015-03-01T09:54:00Z,26.4040,-81.8810,1025.0,1111122 
COMPS,ioos:station:USF.COMPS:BGC:1,2015-03-01T10:00:00Z,26.4040,-81.8810,1025.0,1111122 
COMPS,ioos:station:USF.COMPS:BGC:1,2015-03-01T10:06:00Z,26.4040,-81.8810,1025.0,1111122 
COMPS,ioos:station:USF.COMPS:BGC:1,2015-03-01T10:12:00Z,26.4040,-81.8810,1025.0,1111122 
COMPS,ioos:station:USF.COMPS:BGC:1,2015-03-01T10:18:00Z,26.4040,-81.8810,1025.0,1111122 
COMPS,ioos:station:USF.COMPS:BGC:1,2015-03-01T10:24:00Z,26.4040,-81.8810,1025.0,1111122 
COMPS,ioos:station:USF.COMPS:BGC:1,2015-03-01T10:30:00Z,26.4040,-81.8810,1025.1,1111122 
COMPS,ioos:station:USF.COMPS:BGC:1,2015-03-01T10:36:00Z,26.4040,-81.8810,1025.1,1111122 
COMPS,ioos:station:USF.COMPS:BGC:1,2015-03-01T10:42:00Z,26.4040,-81.8810,1025.2,1111122 
COMPS,ioos:station:USF.COMPS:BGC:1,2015-03-01T10:48:00Z,26.4040,-81.8810,1025.2,1111122 
COMPS,ioos:station:USF.COMPS:BGC:1,2015-03-01T10:54:00Z,26.4040,-81.8810,1025.3,1111122 
COMPS,ioos:station:USF.COMPS:BGC:1,2015-03-01T11:00:00Z,26.4040,-81.8810,1025.3,1111122 
COMPS,ioos:station:USF.COMPS:BGC:1,2015-03-01T11:06:00Z,26.4040,-81.8810,1025.4,1111122 
COMPS,ioos:station:USF.COMPS:BGC:1,2015-03-01T11:12:00Z,26.4040,-81.8810,1025.4,1111122 
COMPS,ioos:station:USF.COMPS:BGC:1,2015-03-01T11:18:00Z,26.4040,-81.8810,1025.5,1111122 
COMPS,ioos:station:USF.COMPS:BGC:1,2015-03-01T11:24:00Z,26.4040,-81.8810,1025.5,1111122 
COMPS,ioos:station:USF.COMPS:BGC:1,2015-03-01T11:30:00Z,26.4040,-81.8810,1025.5,1111122 
COMPS,ioos:station:USF.COMPS:BGC:1,2015-03-01T11:36:00Z,26.4040,-81.8810,1025.5,1111122 
COMPS,ioos:station:USF.COMPS:BGC:1,2015-03-01T11:42:00Z,26.4040,-81.8810,1025.6,1111122 
COMPS,ioos:station:USF.COMPS:BGC:1,2015-03-01T11:48:00Z,26.4040,-81.8810,1025.6,1111122 
COMPS,ioos:station:USF.COMPS:BGC:1,2015-03-01T11:54:00Z,26.4040,-81.8810,1025.7,1111122 
COMPS,ioos:station:USF.COMPS:BGC:1,2015-03-01T12:00:00Z,26.4040,-81.8810,1025.8,1111122 
COMPS,ioos:station:USF.COMPS:BGC:1,2015-03-01T12:06:00Z,26.4040,-81.8810,1025.9,1111122 
COMPS,ioos:station:USF.COMPS:BGC:1,2015-03-01T12:12:00Z,26.4040,-81.8810,1025.9,1111122 
COMPS,ioos:station:USF.COMPS:BGC:1,2015-03-01T12:18:00Z,26.4040,-81.8810,1025.9,1111122 
COMPS,ioos:station:USF.COMPS:BGC:1,2015-03-01T12:24:00Z,26.4040,-81.8810,1026.0,1111122 
COMPS,ioos:station:USF.COMPS:BGC:1,2015-03-01T12:30:00Z,26.4040,-81.8810,1026.1,1111122 
COMPS,ioos:station:USF.COMPS:BGC:1,2015-03-01T12:36:00Z,26.4040,-81.8810,1026.1,1111122 
COMPS,ioos:station:USF.COMPS:BGC:1,2015-03-01T12:42:00Z,26.4040,-81.8810,1026.1,1111122 
COMPS,ioos:station:USF.COMPS:BGC:1,2015-03-01T12:48:00Z,26.4040,-81.8810,1026.1,1111122 
COMPS,ioos:station:USF.COMPS:BGC:1,2015-03-01T12:54:00Z,26.4040,-81.8810,1026.1,1111122 
COMPS,ioos:station:USF.COMPS:BGC:1,2015-03-01T13:00:00Z,26.4040,-81.8810,1026.3,1111122 
COMPS,ioos:station:USF.COMPS:BGC:1,2015-03-01T13:06:00Z,26.4040,-81.8810,1026.3,1111122 
COMPS,ioos:station:USF.COMPS:BGC:1,2015-03-01T13:12:00Z,26.4040,-81.8810,1026.5,1111122 
COMPS,ioos:station:USF.COMPS:BGC:1,2015-03-01T13:18:00Z,26.4040,-81.8810,1026.6,1111122 
COMPS,ioos:station:USF.COMPS:BGC:1,2015-03-01T13:24:00Z,26.4040,-81.8810,1026.6,1111122 
COMPS,ioos:station:USF.COMPS:BGC:1,2015-03-01T13:30:00Z,26.4040,-81.8810,1026.6,1111122 
COMPS,ioos:station:USF.COMPS:BGC:1,2015-03-01T13:36:00Z,26.4040,-81.8810,1026.6,1111122 
COMPS,ioos:station:USF.COMPS:BGC:1,2015-03-01T13:42:00Z,26.4040,-81.8810,1026.6,1111122 
COMPS,ioos:station:USF.COMPS:BGC:1,2015-03-01T13:48:00Z,26.4040,-81.8810,1026.7,1111122 
COMPS,ioos:station:USF.COMPS:BGC:1,2015-03-01T13:54:00Z,26.4040,-81.8810,1026.8,1111122 
COMPS,ioos:station:USF.COMPS:BGC:1,2015-03-01T14:00:00Z,26.4040,-81.8810,1026.8,1111122 
COMPS,ioos:station:USF.COMPS:BGC:1,2015-03-01T14:06:00Z,26.4040,-81.8810,1026.9,1111122 
COMPS,ioos:station:USF.COMPS:BGC:1,2015-03-01T14:12:00Z,26.4040,-81.8810,1027.0,1111122 
COMPS,ioos:station:USF.COMPS:BGC:1,2015-03-01T14:18:00Z,26.4040,-81.8810,1027.0,1111122 
COMPS,ioos:station:USF.COMPS:BGC:1,2015-03-01T14:24:00Z,26.4040,-81.8810,1027.1,1111122 
COMPS,ioos:station:USF.COMPS:BGC:1,2015-03-01T14:30:00Z,26.4040,-81.8810,1027.1,1111122 
COMPS,ioos:station:USF.COMPS:BGC:1,2015-03-01T14:36:00Z,26.4040,-81.8810,1027.0,1111122 
COMPS,ioos:station:USF.COMPS:BGC:1,2015-03-01T14:42:00Z,26.4040,-81.8810,1027.1,1111122 
COMPS,ioos:station:USF.COMPS:BGC:1,2015-03-01T14:48:00Z,26.4040,-81.8810,1027.0,1111122 
COMPS,ioos:station:USF.COMPS:BGC:1,2015-03-01T14:54:00Z,26.4040,-81.8810,1027.0,1111122 
COMPS,ioos:station:USF.COMPS:BGC:1,2015-03-01T15:00:00Z,26.4040,-81.8810,1027.1,1111122 
COMPS,ioos:station:USF.COMPS:BGC:1,2015-03-01T15:06:00Z,26.4040,-81.8810,1027.1,1111122 
COMPS,ioos:station:USF.COMPS:BGC:1,2015-03-01T15:12:00Z,26.4040,-81.8810,1027.1,1111122 
COMPS,ioos:station:USF.COMPS:BGC:1,2015-03-01T15:18:00Z,26.4040,-81.8810,1027.0,1111122 
COMPS,ioos:station:USF.COMPS:BGC:1,2015-03-01T15:24:00Z,26.4040,-81.8810,1026.9,1111122 
COMPS,ioos:station:USF.COMPS:BGC:1,2015-03-01T15:30:00Z,26.4040,-81.8810,1026.9,1111122 
COMPS,ioos:station:USF.COMPS:BGC:1,2015-03-01T15:36:00Z,26.4040,-81.8810,1027.0,1111122 
COMPS,ioos:station:USF.COMPS:BGC:1,2015-03-01T15:42:00Z,26.4040,-81.8810,1027.0,1111122 
COMPS,ioos:station:USF.COMPS:BGC:1,2015-03-01T15:48:00Z,26.4040,-81.8810,1027.0,1111122 
COMPS,ioos:station:USF.COMPS:BGC:1,2015-03-01T15:54:00Z,26.4040,-81.8810,1026.9,1111122 
COMPS,ioos:station:USF.COMPS:BGC:1,2015-03-01T16:00:00Z,26.4040,-81.8810,1026.9,1111122 
COMPS,ioos:station:USF.COMPS:BGC:1,2015-03-01T16:06:00Z,26.4040,-81.8810,1027.0,1111122 
COMPS,ioos:station:USF.COMPS:BGC:1,2015-03-01T16:12:00Z,26.4040,-81.8810,1027.0,1111122 
COMPS,ioos:station:USF.COMPS:BGC:1,2015-03-01T16:18:00Z,26.4040,-81.8810,1026.9,1111122 
COMPS,ioos:station:USF.COMPS:BGC:1,2015-03-01T16:24:00Z,26.4040,-81.8810,1026.8,1111122 
COMPS,ioos:station:USF.COMPS:BGC:1,2015-03-01T16:30:00Z,26.4040,-81.8810,1026.9,1111122 
COMPS,ioos:station:USF.COMPS:BGC:1,2015-03-01T16:36:00Z,26.4040,-81.8810,1026.8,1111122 
COMPS,ioos:station:USF.COMPS:BGC:1,2015-03-01T16:42:00Z,26.4040,-81.8810,1026.7,1111122 
COMPS,ioos:station:USF.COMPS:BGC:1,2015-03-01T16:48:00Z,26.4040,-81.8810,1026.6,1111122 
COMPS,ioos:station:USF.COMPS:BGC:1,2015-03-01T16:54:00Z,26.4040,-81.8810,1026.6,1111122 
COMPS,ioos:station:USF.COMPS:BGC:1,2015-03-01T17:00:00Z,26.4040,-81.8810,1026.6,1111122 
COMPS,ioos:station:USF.COMPS:BGC:1,2015-03-01T17:06:00Z,26.4040,-81.8810,1026.5,1111122 
COMPS,ioos:station:USF.COMPS:BGC:1,2015-03-01T17:12:00Z,26.4040,-81.8810,1026.3,1111122 
COMPS,ioos:station:USF.COMPS:BGC:1,2015-03-01T17:18:00Z,26.4040,-81.8810,1026.2,1111122 
COMPS,ioos:station:USF.COMPS:BGC:1,2015-03-01T17:24:00Z,26.4040,-81.8810,1026.2,1111122 
COMPS,ioos:station:USF.COMPS:BGC:1,2015-03-01T17:30:00Z,26.4040,-81.8810,1026.1,1111122 
COMPS,ioos:station:USF.COMPS:BGC:1,2015-03-01T17:36:00Z,26.4040,-81.8810,1026.1,1111122 
COMPS,ioos:station:USF.COMPS:BGC:1,2015-03-01T17:42:00Z,26.4040,-81.8810,1025.9,1111122 
COMPS,ioos:station:USF.COMPS:BGC:1,2015-03-01T17:48:00Z,26.4040,-81.8810,1025.8,1111122 
COMPS,ioos:station:USF.COMPS:BGC:1,2015-03-01T17:54:00Z,26.4040,-81.8810,1025.6,1111122 
COMPS,ioos:station:USF.COMPS:BGC:1,2015-03-01T18:00:00Z,26.4040,-81.8810,1025.5,1111122 
COMPS,ioos:station:USF.COMPS:BGC:1,2015-03-01T18:06:00Z,26.4040,-81.8810,1025.4,1111122 
COMPS,ioos:station:USF.COMPS:BGC:1,2015-03-01T18:12:00Z,26.4040,-81.8810,1025.3,1111122 
COMPS,ioos:station:USF.COMPS:BGC:1,2015-03-01T18:18:00Z,26.4040,-81.8810,1025.1,1111122 
COMPS,ioos:station:USF.COMPS:BGC:1,2015-03-01T18:24:00Z,26.4040,-81.8810,1025.0,1111122 
COMPS,ioos:station:USF.COMPS:BGC:1,2015-03-01T18:30:00Z,26.4040,-81.8810,1024.9,1111122 
COMPS,ioos:station:USF.COMPS:BGC:1,2015-03-01T18:36:00Z,26.4040,-81.8810,1024.8,1111122 
COMPS,ioos:station:USF.COMPS:BGC:1,2015-03-01T18:42:00Z,26.4040,-81.8810,1024.7,1111122 
COMPS,ioos:station:USF.COMPS:BGC:1,2015-03-01T18:48:00Z,26.4040,-81.8810,1024.5,1111122 
COMPS,ioos:station:USF.COMPS:BGC:1,2015-03-01T18:54:00Z,26.4040,-81.8810,1024.4,1111122 
COMPS,ioos:station:USF.COMPS:BGC:1,2015-03-01T19:00:00Z,26.4040,-81.8810,1024.4,1111122 
COMPS,ioos:station:USF.COMPS:BGC:1,2015-03-01T19:06:00Z,26.4040,-81.8810,1024.4,1111122 
COMPS,ioos:station:USF.COMPS:BGC:1,2015-03-01T19:12:00Z,26.4040,-81.8810,1024.3,1111122 
COMPS,ioos:station:USF.COMPS:BGC:1,2015-03-01T19:18:00Z,26.4040,-81.8810,1024.3,1111122 
COMPS,ioos:station:USF.COMPS:BGC:1,2015-03-01T19:24:00Z,26.4040,-81.8810,1024.3,1111122 
COMPS,ioos:station:USF.COMPS:BGC:1,2015-03-01T19:30:00Z,26.4040,-81.8810,1024.2,1111122 
COMPS,ioos:station:USF.COMPS:BGC:1,2015-03-01T19:36:00Z,26.4040,-81.8810,1024.0,1111122 
COMPS,ioos:station:USF.COMPS:BGC:1,2015-03-01T19:42:00Z,26.4040,-81.8810,1024.0,1111122 
COMPS,ioos:station:USF.COMPS:BGC:1,2015-03-01T19:48:00Z,26.4040,-81.8810,1023.9,1111122 
COMPS,ioos:station:USF.COMPS:BGC:1,2015-03-01T19:54:00Z,26.4040,-81.8810,1023.9,1111122 
COMPS,ioos:station:USF.COMPS:BGC:1,2015-03-01T20:00:00Z,26.4040,-81.8810,1023.8,1111122 
COMPS,ioos:station:USF.COMPS:BGC:1,2015-03-01T20:06:00Z,26.4040,-81.8810,1023.7,1111122 
COMPS,ioos:station:USF.COMPS:BGC:1,2015-03-01T20:12:00Z,26.4040,-81.8810,1023.6,1111122 
COMPS,ioos:station:USF.COMPS:BGC:1,2015-03-01T20:18:00Z,26.4040,-81.8810,1023.5,1111122 
COMPS,ioos:station:USF.COMPS:BGC:1,2015-03-01T20:24:00Z,26.4040,-81.8810,1023.5,1111122 
COMPS,ioos:station:USF.COMPS:BGC:1,2015-03-01T20:30:00Z,26.4040,-81.8810,1023.6,1111122 
COMPS,ioos:station:USF.COMPS:BGC:1,2015-03-01T20:36:00Z,26.4040,-81.8810,1023.5,1111122 
COMPS,ioos:station:USF.COMPS:BGC:1,2015-03-01T20:42:00Z,26.4040,-81.8810,1023.5,1111122 
COMPS,ioos:station:USF.COMPS:BGC:1,2015-03-01T20:48:00Z,26.4040,-81.8810,1023.5,1111122 
COMPS,ioos:station:USF.COMPS:BGC:1,2015-03-01T20:54:00Z,26.4040,-81.8810,1023.5,1111122 
COMPS,ioos:station:USF.COMPS:BGC:1,2015-03-01T21:00:00Z,26.4040,-81.8810,1023.4,1111122 
COMPS,ioos:station:USF.COMPS:BGC:1,2015-03-01T21:06:00Z,26.4040,-81.8810,1023.4,1111122 
COMPS,ioos:station:USF.COMPS:BGC:1,2015-03-01T21:12:00Z,26.4040,-81.8810,1023.5,1111122 
COMPS,ioos:station:USF.COMPS:BGC:1,2015-03-01T21:18:00Z,26.4040,-81.8810,1023.5,1111122 
COMPS,ioos:station:USF.COMPS:BGC:1,2015-03-01T21:24:00Z,26.4040,-81.8810,1023.4,1111122 
COMPS,ioos:station:USF.COMPS:BGC:1,2015-03-01T21:30:00Z,26.4040,-81.8810,1023.5,1111122 
COMPS,ioos:station:USF.COMPS:BGC:1,2015-03-01T21:36:00Z,26.4040,-81.8810,1023.6,1111122 
COMPS,ioos:station:USF.COMPS:BGC:1,2015-03-01T21:42:00Z,26.4040,-81.8810,1023.6,1111122 
COMPS,ioos:station:USF.COMPS:BGC:1,2015-03-01T21:48:00Z,26.4040,-81.8810,1023.7,1111122 
COMPS,ioos:station:USF.COMPS:BGC:1,2015-03-01T21:54:00Z,26.4040,-81.8810,1023.7,1111122 
COMPS,ioos:station:USF.COMPS:BGC:1,2015-03-01T22:00:00Z,26.4040,-81.8810,1023.7,1111122 
COMPS,ioos:station:USF.COMPS:BGC:1,2015-03-01T22:06:00Z,26.4040,-81.8810,1023.7,1111122 
COMPS,ioos:station:USF.COMPS:BGC:1,2015-03-01T22:12:00Z,26.4040,-81.8810,1023.8,1111122 
COMPS,ioos:station:USF.COMPS:BGC:1,2015-03-01T22:18:00Z,26.4040,-81.8810,1023.8,1111122 
COMPS,ioos:station:USF.COMPS:BGC:1,2015-03-01T22:24:00Z,26.4040,-81.8810,1023.9,1111122 
COMPS,ioos:station:USF.COMPS:BGC:1,2015-03-01T22:30:00Z,26.4040,-81.8810,1024.1,1111122 
COMPS,ioos:station:USF.COMPS:BGC:1,2015-03-01T22:36:00Z,26.4040,-81.8810,1024.0,1111122 
COMPS,ioos:station:USF.COMPS:BGC:1,2015-03-01T22:42:00Z,26.4040,-81.8810,1024.0,1111122 
COMPS,ioos:station:USF.COMPS:BGC:1,2015-03-01T22:48:00Z,26.4040,-81.8810,1024.1,1111122 
COMPS,ioos:station:USF.COMPS:BGC:1,2015-03-01T22:54:00Z,26.4040,-81.8810,1024.1,1111122 
COMPS,ioos:station:USF.COMPS:BGC:1,2015-03-02T02:00:00Z,26.4040,-81.8810,1025.8,1111122 
COMPS,ioos:station:USF.COMPS:BGC:1,2015-03-02T02:06:00Z,26.4040,-81.8810,1025.9,1111122 
COMPS,ioos:station:USF.COMPS:BGC:1,2015-03-02T02:12:00Z,26.4040,-81.8810,1026.0,1111122 
COMPS,ioos:station:USF.COMPS:BGC:1,2015-03-02T02:18:00Z,26.4040,-81.8810,1026.1,1111122 
COMPS,ioos:station:USF.COMPS:BGC:1,2015-03-02T02:24:00Z,26.4040,-81.8810,1026.1,1111122 
COMPS,ioos:station:USF.COMPS:BGC:1,2015-03-02T02:30:00Z,26.4040,-81.8810,1026.1,1111122 
COMPS,ioos:station:USF.COMPS:BGC:1,2015-03-02T02:36:00Z,26.4040,-81.8810,1026.1,1111122 
COMPS,ioos:station:USF.COMPS:BGC:1,2015-03-02T02:42:00Z,26.4040,-81.8810,1026.1,1111122 
COMPS,ioos:station:USF.COMPS:BGC:1,2015-03-02T02:48:00Z,26.4040,-81.8810,1026.1,1111122 
COMPS,ioos:station:USF.COMPS:BGC:1,2015-03-02T02:54:00Z,26.4040,-81.8810,1026.1,1111122 
COMPS,ioos:station:USF.COMPS:BGC:1,2015-03-02T03:00:00Z,26.4040,-81.8810,1026.1,1111122 
COMPS,ioos:station:USF.COMPS:BGC:1,2015-03-02T03:06:00Z,26.4040,-81.8810,1026.1,1111122 
COMPS,ioos:station:USF.COMPS:BGC:1,2015-03-02T03:12:00Z,26.4040,-81.8810,1026.2,1111122 
COMPS,ioos:station:USF.COMPS:BGC:1,2015-03-02T03:18:00Z,26.4040,-81.8810,1026.2,1111122 
COMPS,ioos:station:USF.COMPS:BGC:1,2015-03-02T03:24:00Z,26.4040,-81.8810,1026.2,1111122 
COMPS,ioos:station:USF.COMPS:BGC:1,2015-03-02T03:30:00Z,26.4040,-81.8810,1026.2,1111122 
COMPS,ioos:station:USF.COMPS:BGC:1,2015-03-02T03:36:00Z,26.4040,-81.8810,1026.2,1111122 
COMPS,ioos:station:USF.COMPS:BGC:1,2015-03-02T03:42:00Z,26.4040,-81.8810,1026.1,1111122 
COMPS,ioos:station:USF.COMPS:BGC:1,2015-03-02T03:48:00Z,26.4040,-81.8810,1026.1,1111122 
COMPS,ioos:station:USF.COMPS:BGC:1,2015-03-02T03:54:00Z,26.4040,-81.8810,1026.1,1111122 
COMPS,ioos:station:USF.COMPS:BGC:1,2015-03-02T04:00:00Z,26.4040,-81.8810,1026.1,1111122 
COMPS,ioos:station:USF.COMPS:BGC:1,2015-03-02T04:06:00Z,26.4040,-81.8810,1026.1,1111122 
COMPS,ioos:station:USF.COMPS:BGC:1,2015-03-02T04:12:00Z,26.4040,-81.8810,1026.1,1111122 
COMPS,ioos:station:USF.COMPS:BGC:1,2015-03-02T04:18:00Z,26.4040,-81.8810,1026.1,1111122 
COMPS,ioos:station:USF.COMPS:BGC:1,2015-03-02T04:24:00Z,26.4040,-81.8810,1026.1,1111122 
COMPS,ioos:station:USF.COMPS:BGC:1,2015-03-02T04:30:00Z,26.4040,-81.8810,1026.1,1111122 
COMPS,ioos:station:USF.COMPS:BGC:1,2015-03-02T04:36:00Z,26.4040,-81.8810,1026.1,1111122 
COMPS,ioos:station:USF.COMPS:BGC:1,2015-03-02T04:42:00Z,26.4040,-81.8810,1026.1,1111122 
COMPS,ioos:station:USF.COMPS:BGC:1,2015-03-02T04:48:00Z,26.4040,-81.8810,1026.0,1111122 
COMPS,ioos:station:USF.COMPS:BGC:1,2015-03-02T04:54:00Z,26.4040,-81.8810,1025.9,1111122 
COMPS,ioos:station:USF.COMPS:BGC:1,2015-03-02T07:00:00Z,26.4040,-81.8810,1025.0,1111122 
COMPS,ioos:station:USF.COMPS:BGC:1,2015-03-02T07:06:00Z,26.4040,-81.8810,1024.9,1111122 
COMPS,ioos:station:USF.COMPS:BGC:1,2015-03-02T07:12:00Z,26.4040,-81.8810,1024.8,1111122 
COMPS,ioos:station:USF.COMPS:BGC:1,2015-03-02T07:18:00Z,26.4040,-81.8810,1024.8,1111122 
COMPS,ioos:station:USF.COMPS:BGC:1,2015-03-02T07:24:00Z,26.4040,-81.8810,1024.7,1111122 
COMPS,ioos:station:USF.COMPS:BGC:1,2015-03-02T07:30:00Z,26.4040,-81.8810,1024.6,1111122 
COMPS,ioos:station:USF.COMPS:BGC:1,2015-03-02T07:36:00Z,26.4040,-81.8810,1024.5,1111122 
COMPS,ioos:station:USF.COMPS:BGC:1,2015-03-02T07:42:00Z,26.4040,-81.8810,1024.4,1111122 
COMPS,ioos:station:USF.COMPS:BGC:1,2015-03-02T07:48:00Z,26.4040,-81.8810,1024.5,1111122 
COMPS,ioos:station:USF.COMPS:BGC:1,2015-03-02T07:54:00Z,26.4040,-81.8810,1024.5,1111122 
COMPS,ioos:station:USF.COMPS:BGC:1,2015-03-02T08:00:00Z,26.4040,-81.8810,1024.4,1111122 
COMPS,ioos:station:USF.COMPS:BGC:1,2015-03-02T08:06:00Z,26.4040,-81.8810,1024.4,1111122 
COMPS,ioos:station:USF.COMPS:BGC:1,2015-03-02T08:12:00Z,26.4040,-81.8810,1024.4,1111122 
COMPS,ioos:station:USF.COMPS:BGC:1,2015-03-02T08:18:00Z,26.4040,-81.8810,1024.3,1111122 
COMPS,ioos:station:USF.COMPS:BGC:1,2015-03-02T08:24:00Z,26.4040,-81.8810,1024.3,1111122 
COMPS,ioos:station:USF.COMPS:BGC:1,2015-03-02T08:30:00Z,26.4040,-81.8810,1024.3,1111122 
COMPS,ioos:station:USF.COMPS:BGC:1,2015-03-02T08:36:00Z,26.4040,-81.8810,1024.4,1111122 
COMPS,ioos:station:USF.COMPS:BGC:1,2015-03-02T08:42:00Z,26.4040,-81.8810,1024.2,1111122 
COMPS,ioos:station:USF.COMPS:BGC:1,2015-03-02T08:48:00Z,26.4040,-81.8810,1024.2,1111122 
COMPS,ioos:station:USF.COMPS:BGC:1,2015-03-02T08:54:00Z,26.4040,-81.8810,1024.2,1111122 
COMPS,ioos:station:USF.COMPS:BGC:1,2015-03-02T09:00:00Z,26.4040,-81.8810,1024.2,1111122 
COMPS,ioos:station:USF.COMPS:BGC:1,2015-03-02T09:06:00Z,26.4040,-81.8810,1024.2,1111122 
COMPS,ioos:station:USF.COMPS:BGC:1,2015-03-02T09:12:00Z,26.4040,-81.8810,1024.2,1111122 
COMPS,ioos:station:USF.COMPS:BGC:1,2015-03-02T09:18:00Z,26.4040,-81.8810,1024.2,1111122 
COMPS,ioos:station:USF.COMPS:BGC:1,2015-03-02T09:24:00Z,26.4040,-81.8810,1024.2,1111122 
COMPS,ioos:station:USF.COMPS:BGC:1,2015-03-02T09:30:00Z,26.4040,-81.8810,1024.2,1111122 
COMPS,ioos:station:USF.COMPS:BGC:1,2015-03-02T09:36:00Z,26.4040,-81.8810,1024.2,1111122 
COMPS,ioos:station:USF.COMPS:BGC:1,2015-03-02T09:42:00Z,26.4040,-81.8810,1024.3,1111122 
COMPS,ioos:station:USF.COMPS:BGC:1,2015-03-02T09:48:00Z,26.4040,-81.8810,1024.4,1111122 
COMPS,ioos:station:USF.COMPS:BGC:1,2015-03-02T09:54:00Z,26.4040,-81.8810,1024.4,1111122 
COMPS,ioos:station:USF.COMPS:BGC:1,2015-03-02T11:00:00Z,26.4040,-81.8810,1024.9,1111122 
COMPS,ioos:station:USF.COMPS:BGC:1,2015-03-02T11:06:00Z,26.4040,-81.8810,1025.0,1111122 
COMPS,ioos:station:USF.COMPS:BGC:1,2015-03-02T11:12:00Z,26.4040,-81.8810,1025.0,1111122 
COMPS,ioos:station:USF.COMPS:BGC:1,2015-03-02T11:18:00Z,26.4040,-81.8810,1025.0,1111122 
COMPS,ioos:station:USF.COMPS:BGC:1,2015-03-02T11:24:00Z,26.4040,-81.8810,1025.1,1111122 
COMPS,ioos:station:USF.COMPS:BGC:1,2015-03-02T11:30:00Z,26.4040,-81.8810,1025.1,1111122 
COMPS,ioos:station:USF.COMPS:BGC:1,2015-03-02T11:36:00Z,26.4040,-81.8810,1025.1,1111122 
COMPS,ioos:station:USF.COMPS:BGC:1,2015-03-02T11:42:00Z,26.4040,-81.8810,1025.2,1111122 
COMPS,ioos:station:USF.COMPS:BGC:1,2015-03-02T11:48:00Z,26.4040,-81.8810,1025.3,1111122 
COMPS,ioos:station:USF.COMPS:BGC:1,2015-03-02T11:54:00Z,26.4040,-81.8810,1025.3,1111122 
COMPS,ioos:station:USF.COMPS:BGC:1,2015-03-02T12:00:00Z,26.4040,-81.8810,1025.3,1111122 
COMPS,ioos:station:USF.COMPS:BGC:1,2015-03-02T12:06:00Z,26.4040,-81.8810,1025.3,1111122 
COMPS,ioos:station:USF.COMPS:BGC:1,2015-03-02T12:12:00Z,26.4040,-81.8810,1025.4,1111122 
COMPS,ioos:station:USF.COMPS:BGC:1,2015-03-02T12:18:00Z,26.4040,-81.8810,1025.5,1111122 
COMPS,ioos:station:USF.COMPS:BGC:1,2015-03-02T12:24:00Z,26.4040,-81.8810,1025.5,1111122 
COMPS,ioos:station:USF.COMPS:BGC:1,2015-03-02T12:30:00Z,26.4040,-81.8810,1025.5,1111122 
COMPS,ioos:station:USF.COMPS:BGC:1,2015-03-02T12:36:00Z,26.4040,-81.8810,1025.4,1111122 
COMPS,ioos:station:USF.COMPS:BGC:1,2015-03-02T12:42:00Z,26.4040,-81.8810,1025.4,1111122 
COMPS,ioos:station:USF.COMPS:BGC:1,2015-03-02T12:48:00Z,26.4040,-81.8810,1025.4,1111122 
COMPS,ioos:station:USF.COMPS:BGC:1,2015-03-02T12:54:00Z,26.4040,-81.8810,1025.5,1111122 
COMPS,ioos:station:USF.COMPS:BGC:1,2015-03-02T13:00:00Z,26.4040,-81.8810,1025.5,1111122 
COMPS,ioos:station:USF.COMPS:BGC:1,2015-03-02T13:06:00Z,26.4040,-81.8810,1025.5,1111122 
COMPS,ioos:station:USF.COMPS:BGC:1,2015-03-02T13:12:00Z,26.4040,-81.8810,1025.5,1111122 
COMPS,ioos:station:USF.COMPS:BGC:1,2015-03-02T13:18:00Z,26.4040,-81.8810,1025.5,1111122 
COMPS,ioos:station:USF.COMPS:BGC:1,2015-03-02T13:24:00Z,26.4040,-81.8810,1025.5,1111122 
COMPS,ioos:station:USF.COMPS:BGC:1,2015-03-02T13:30:00Z,26.4040,-81.8810,1025.5,1111122 
COMPS,ioos:station:USF.COMPS:BGC:1,2015-03-02T13:36:00Z,26.4040,-81.8810,1025.5,1111122 
COMPS,ioos:station:USF.COMPS:BGC:1,2015-03-02T13:42:00Z,26.4040,-81.8810,1025.6,1111122 
COMPS,ioos:station:USF.COMPS:BGC:1,2015-03-02T13:48:00Z,26.4040,-81.8810,1025.8,1111122 
COMPS,ioos:station:USF.COMPS:BGC:1,2015-03-02T13:54:00Z,26.4040,-81.8810,1025.8,1111122 
COMPS,ioos:station:USF.COMPS:BGC:1,2015-03-02T15:00:00Z,26.4040,-81.8810,1026.0,1111122 
COMPS,ioos:station:USF.COMPS:BGC:1,2015-03-02T15:06:00Z,26.4040,-81.8810,1026.0,1111122 
COMPS,ioos:station:USF.COMPS:BGC:1,2015-03-02T15:12:00Z,26.4040,-81.8810,1026.0,1111122 
COMPS,ioos:station:USF.COMPS:BGC:1,2015-03-02T15:18:00Z,26.4040,-81.8810,1025.9,1111122 
COMPS,ioos:station:USF.COMPS:BGC:1,2015-03-02T15:24:00Z,26.4040,-81.8810,1025.9,1111122 
COMPS,ioos:station:USF.COMPS:BGC:1,2015-03-02T15:30:00Z,26.4040,-81.8810,1025.8,1111122 
COMPS,ioos:station:USF.COMPS:BGC:1,2015-03-02T15:36:00Z,26.4040,-81.8810,1025.8,1111122 
COMPS,ioos:station:USF.COMPS:BGC:1,2015-03-02T15:42:00Z,26.4040,-81.8810,1025.8,1111122 
COMPS,ioos:station:USF.COMPS:BGC:1,2015-03-02T15:48:00Z,26.4040,-81.8810,1025.8,1111122 
COMPS,ioos:station:USF.COMPS:BGC:1,2015-03-02T15:54:00Z,26.4040,-81.8810,1025.7,1111122 
COMPS,ioos:station:USF.COMPS:BGC:1,2015-03-02T17:00:00Z,26.4040,-81.8810,1024.8,1111122 
COMPS,ioos:station:USF.COMPS:BGC:1,2015-03-02T17:06:00Z,26.4040,-81.8810,1024.6,1111122 
COMPS,ioos:station:USF.COMPS:BGC:1,2015-03-02T17:12:00Z,26.4040,-81.8810,1024.5,1111122 
COMPS,ioos:station:USF.COMPS:BGC:1,2015-03-02T17:18:00Z,26.4040,-81.8810,1024.4,1111122 
COMPS,ioos:station:USF.COMPS:BGC:1,2015-03-02T17:24:00Z,26.4040,-81.8810,1024.3,1111122 
COMPS,ioos:station:USF.COMPS:BGC:1,2015-03-02T17:30:00Z,26.4040,-81.8810,1024.2,1111122 
COMPS,ioos:station:USF.COMPS:BGC:1,2015-03-02T17:36:00Z,26.4040,-81.8810,1024.0,1111122 
COMPS,ioos:station:USF.COMPS:BGC:1,2015-03-02T17:42:00Z,26.4040,-81.8810,1023.9,1111122 
COMPS,ioos:station:USF.COMPS:BGC:1,2015-03-02T17:48:00Z,26.4040,-81.8810,1023.9,1111122 
COMPS,ioos:station:USF.COMPS:BGC:1,2015-03-02T17:54:00Z,26.4040,-81.8810,1023.8,1111122 
COMPS,ioos:station:USF.COMPS:BGC:1,2015-03-02T18:00:00Z,26.4040,-81.8810,1023.7,1111122 
COMPS,ioos:station:USF.COMPS:BGC:1,2015-03-02T18:06:00Z,26.4040,-81.8810,1023.6,1111122 
COMPS,ioos:station:USF.COMPS:BGC:1,2015-03-02T18:12:00Z,26.4040,-81.8810,1023.3,1111122 
COMPS,ioos:station:USF.COMPS:BGC:1,2015-03-02T18:18:00Z,26.4040,-81.8810,1023.2,1111122 
COMPS,ioos:station:USF.COMPS:BGC:1,2015-03-02T18:24:00Z,26.4040,-81.8810,1023.2,1111122 
COMPS,ioos:station:USF.COMPS:BGC:1,2015-03-02T18:30:00Z,26.4040,-81.8810,1023.0,1111122 
COMPS,ioos:station:USF.COMPS:BGC:1,2015-03-02T18:36:00Z,26.4040,-81.8810,1022.9,1111122 
COMPS,ioos:station:USF.COMPS:BGC:1,2015-03-02T18:42:00Z,26.4040,-81.8810,1022.8,1111122 